Satellite-Ground Cal/Val Site Overpasses Predictions

Prediction of Satellite NPP Overpassing Cal/Val Site: Antarctic Dome C

Ground Cal/Val Site Location: Latitude: -75.10, Longitude: 123.35; Satellite-Ground Site NADIR distance within 100 km.

Table of predicted overpasses for the next 14.0 days since TLE Epoch: 2/19/2022
Interval Starting Time Ending Time Minimum Distance Time Minimum Distance (km)
1 02/19/2022 07:44:15 02/19/2022 07:44:36 02/19/2022 07:44:26 71.01
2 02/20/2022 07:25:22 02/20/2022 07:25:50 02/20/2022 07:25:36 36.93
3 02/22/2022 15:07:49 02/22/2022 15:07:58 02/22/2022 15:07:53 94.75
4 02/23/2022 14:48:50 02/23/2022 14:49:19 02/23/2022 14:49:04 16.49
5 02/25/2022 07:31:39 02/25/2022 07:32:09 02/25/2022 07:31:54 0.21
6 02/28/2022 14:55:07 02/28/2022 14:55:35 02/28/2022 14:55:21 20.14
7 03/01/2022 14:36:26 03/01/2022 14:36:40 03/01/2022 14:36:33 86.80
8 03/02/2022 07:37:58 03/02/2022 07:38:25 03/02/2022 07:38:12 36.18
